Flag for USA

Past Weather in Township of East Fairfield, Pennsylvania, USA — Yesterday and Last 2 Weeks

Now
31 °F

Passing clouds.


Feels Like: 26 °F
Forecast: 43 / 29 °F
Wind: 5 mph from North

Location: New Castle, New Castle Municipal Airport

Current Time: Dec 6, 2019 at 3:09:14 am

Latest Report: Dec 6, 2019 at 1:56 am


Visibility: 10 mi

Pressure: 30.11 "Hg

Humidity: 82%

Dew Point: 26 °F

Location of Township of East FairfieldLocation

Past Weather in Township of East Fairfield — Graph

°F

Township of East Fairfield Temperature Yesterday

Maximum temperature yesterday: 37 °F (at 1:56 pm)
Minimum temperature yesterday: 31 °F (at 2:56 am)
Average temperature yesterday: 33 °F

High & Low Weather Summary for the Past Weeks

 TemperatureHumidityPressure
High59 °F (Nov 26, 1:56 pm)100% (Nov 22, 4:31 am)30.48 "Hg (Nov 22, 4:31 am)
Low20 °F (Nov 23, 4:56 am)48% (Nov 26, 2:56 pm)29.39 "Hg (Dec 1, 2:20 pm)
Average37 °F81%29.91 "Hg
* Reported Nov 21 1:56 am — Dec 6 1:56 am, Township of East Fairfield. Weather by CustomWeather, © 2019

Note: Actual official high and low records may vary slightly from our data, if they occured in-between our weather recording intervals... More about our weather records

Township of East Fairfield Weather History for the Previous 24 Hours

Scroll right to see more
 ConditionsComfort  
Time TempWeatherWind HumidityBarometerVisibility
1:56 am
Fri, Dec 6
31 °FPassing clouds.5 mph82%30.11 "Hg10 mi
12:56 am31 °FPassing clouds.3 mph82%30.13 "Hg10 mi
11:56 pm
Thu, Dec 5
31 °FOvercast.No wind85%30.16 "Hg10 mi
10:56 pm31 °FOvercast.No wind89%30.16 "Hg10 mi
9:56 pm31 °FOvercast.No wind89%30.17 "Hg10 mi
8:56 pm32 °FOvercast.No wind88%30.17 "Hg10 mi
7:56 pm32 °FOvercast.No wind85%30.18 "Hg10 mi
6:56 pm33 °FOvercast.No wind78%30.18 "Hg10 mi
5:56 pm31 °FOvercast.No wind82%30.16 "Hg10 mi
4:56 pm35 °FPassing clouds.5 mph67%30.14 "Hg10 mi
3:56 pm37 °FOvercast.8 mph62%30.13 "Hg10 mi
2:56 pm37 °FPartly sunny.12 mph62%30.10 "Hg10 mi
1:56 pm37 °FOvercast.15 mph62%30.09 "Hg10 mi
12:56 pm36 °FOvercast.9 mph64%30.08 "Hg10 mi
11:56 am35 °FOvercast.9 mph67%30.08 "Hg10 mi
10:56 am35 °FOvercast.13 mph70%30.08 "Hg10 mi
9:56 am34 °FOvercast.10 mph73%30.05 "Hg10 mi
8:56 am33 °FLight rain. Overcast.10 mph78%30.02 "Hg10 mi
7:56 am32 °FLight snow. More clouds than sun.12 mph82%30.00 "Hg9 mi
6:56 am32 °FLight snow. Mostly cloudy.10 mph88%29.97 "Hg8 mi
5:56 am32 °FLight snow. Overcast.12 mph88%29.94 "Hg9 mi
5:20 am32 °FLight snow. Overcast.10 mph87%29.85 "Hg9 mi
4:56 am32 °FLight snow. Mostly cloudy.12 mph88%29.92 "Hg9 mi
4:08 am32 °FLight snow. Ice fog.12 mph93%29.82 "Hg5 mi
3:21 am32 °FLight snow. Low clouds.12 mph93%29.79 "Hg9 mi
Weather by CustomWeather, © 2019

See weather overview

Advertising